Location: Strawberry
(45.6646°N, 111.9596°W)
Time: 11:55:33
(UTC+00:00)

BEESAT - Visible Passes

Search period start: 04 December 2022 00:00
Search period end: 14 December 2022 00:00
Orbit: 699 x 706 km, 98.5° (Epoch: 03 December)

Date Brightness Start Highest point End Pass type
(mag) Time Alt. Az. Time Alt. Az. Time Alt. Az.
04 Dec ? 14:03:30 10° ESE 14:06:55 20° ENE 14:10:21 10° NNE visible
06 Dec ? 13:52:03 10° E 13:54:53 16° ENE 13:57:43 10° NNE visible
08 Dec ? 13:40:54 10° E 13:42:52 12° ENE 13:44:49 10° NNE visible
09 Dec ? 14:21:06 10° ESE 14:25:07 28° ENE 14:29:09 10° N visible
11 Dec ? 14:09:25 10° ESE 14:13:02 22° ENE 14:16:40 10° NNE visible
13 Dec ? 13:57:53 10° E 14:00:58 17° ENE 14:04:04 10° NNE visible
